EW3989 Weather Reports


Display with metric or nautical units.
time (UTC)temp
F
wind
direction
speed
MPH
gust
MPH
rain 1hr
in
rain 24hr
in
rain mn
in
humidity
%
barometer
mb
20260902202059 86 0.0 4.0 0.00 1.01 1.01 60 1012.8
20260902201019 86 0.0 1.0 0.00 1.01 1.01 61 1012.9
20260902200020 85 0.0 1.0 0.00 1.01 1.01 65 1013.1
20260902195019 85 203 1.0 5.0 0.00 1.01 1.01 61 1013.2
20260902194019 85 0.0 1.0 0.00 1.01 1.01 65 1013.1
20260902193019 84 0.0 2.0 0.00 1.01 1.01 65 1013.1
20260902192019 83 180 1.0 4.0 0.00 1.01 1.01 66 1013.1
20260902191036 82 0.0 2.0 0.00 1.01 1.01 68 1013.0
20260902190028 82 0.0 1.0 0.00 1.01 1.01 67 1013.0
20260902185039 82 0.0 1.0 0.00 1.01 1.01 66 1013.0
20260902184019 82 0.0 1.0 0.00 1.01 1.01 66 1013.0
20260902183019 82 0.0 1.0 0.00 1.01 1.01 68 1013.0
20260902182027 82 0.0 2.0 0.00 1.01 1.01 68 1013.1
20260902181019 82 0.0 2.0 0.00 1.01 1.01 67 1013.0
20260902180019 82 0.0 2.0 0.00 1.01 1.01 67 1013.0
20260902175036 82 0.0 0.0 0.00 1.01 1.01 69 1012.9
20260902174019 81 0.0 2.0 0.00 1.01 1.01 68 1013.2
20260902173036 80 0.0 0.0 0.00 1.01 1.01 78 1013.4
20260902172028 79 0.0 2.0 0.00 1.01 1.01 73 1013.5
20260902171019 78 0.0 2.0 0.00 1.01 1.01 76 1013.6
20260902170019 78 0.0 1.0 0.00 1.01 1.01 77 1013.4
20260902165039 78 0.0 1.0 0.00 1.01 1.01 77 1013.6
20260902164100 77 0.0 1.0 0.00 1.01 1.01 77 1013.8
20260902163048 77 0.0 0.0 0.00 1.01 1.01 84 1013.7
20260902162036 76 0.0 1.0 0.00 1.01 1.01 81 1013.5
20260902161020 75 0.0 0.0 0.00 1.01 1.01 86 1013.5
20260902160028 74 0.0 1.0 0.00 1.01 1.01 84 1013.0
20260902155027 73 0.0 1.0 0.00 1.01 1.01 85 1013.3
20260902154048 72 0.0 1.0 0.00 1.01 1.01 87 1013.5
20260902153019 71 0.0 0.0 0.00 1.01 1.01 88 1013.7
20260902152406 71 0.0 0.0 0.00 1.01 1.01 88 1013.8
20260902151019 70 0.0 1.0 0.00 1.01 1.01 88 1013.8
20260902150036 68 0.0 0.0 0.00 1.01 1.01 83 1013.8
20260902145019 67 0.0 0.0 0.00 1.01 1.01 82 1013.7
20260902144300 66 0.0 0.0 0.00 1.01 1.01 82 1013.5
20260902143536 66 0.0 0.0 0.00 1.01 1.01 82 1013.5
20260902142528 65 0.0 0.0 0.00 1.01 1.01 82 1013.3
20260902141519 65 0.0 0.0 0.00 1.01 1.01 82 1013.1
20260902140520 65 0.0 0.0 0.00 1.01 1.01 83 1013.2
20260902135519 64 0.0 0.0 0.00 1.01 1.01 83 1013.5
20260902134519 64 0.0 0.0 0.03 1.01 1.01 83 1013.1
20260902133545 64 0.0 0.0 0.05 1.01 1.01 83 1012.9
20260902132544 64 0.0 0.0 0.08 1.01 1.01 83 1013.0
20260902131539 63 0.0 1.0 0.09 1.01 1.01 83 1013.5
20260902130527 63 0.0 0.0 0.10 1.01 1.01 83 1014.0
20260902125519 63 0.0 0.0 0.11 1.01 1.01 83 1014.4
20260902124519 63 0.0 0.0 0.09 0.98 0.98 83 1014.3
20260902123518 63 0.0 1.0 0.07 0.96 0.96 83 1014.4
20260902122519 63 0.0 1.0 0.04 0.93 0.93 83 1015.8
20260902121536 63 0.0 2.0 0.04 0.92 0.92 83 1014.8
20260902120545 63 0.0 0.0 0.03 0.91 0.91 83 1014.6
20260902115518 63 0.0 0.0 0.02 0.90 0.90 83 1014.3
20260902114519 63 0.0 0.0 0.01 0.89 0.89 83 1015.2
20260902113518 63 0.0 0.0 0.01 0.89 0.89 83 1013.5
20260902112536 63 0.0 1.0 0.06 0.89 0.89 83 1012.7
20260902111519 63 0.0 0.0 0.05 0.88 0.88 83 1013.6
20260902110536 63 0.0 0.0 0.05 0.88 0.88 83 1013.7
20260902105539 62 0.0 0.0 0.05 0.88 0.88 83 1014.1
20260902104556 62 0.0 1.0 0.05 0.88 0.88 83 1013.0
20260902103519 62 0.0 1.0 0.05 0.88 0.88 83 1013.1
20260902102547 62 0.0 0.0 0.00 0.83 0.83 84 1014.0
20260902101527 62 0.0 0.0 0.00 0.83 0.83 84 1013.7
20260902100527 62 0.0 1.0 0.04 0.83 0.83 84 1013.9
20260902095547 63 0.0 1.0 0.23 0.83 0.83 85 1014.2
20260902094536 63 0.0 1.0 0.59 0.83 0.83 85 1014.7
20260902093518 63 0.0 1.0 0.74 0.83 0.83 86 1015.2
20260902092518 63 0.0 1.0 0.77 0.83 0.83 87 1015.1
20260902091518 64 0.0 3.0 0.77 0.83 0.83 87 1015.5
20260902090519 65 0.0 6.0 0.79 0.79 0.79 87 1016.6
20260902085556 67 0.0 4.0 0.60 0.60 0.60 87 1018.9
20260902084527 68 0.0 5.0 0.24 0.24 0.24 87 1015.0
20260902083518 69 0.0 0.0 0.09 0.09 0.09 84 1014.7
20260902082519 70 0.0 0.0 0.06 0.06 0.06 83 1014.0
20260902081535 70 0.0 0.0 0.06 0.06 0.06 85 1013.1
20260902080518 70 0.0 0.0 0.00 0.00 0.00 86 1013.0
20260902075600 70 0.0 0.0 0.00 0.00 0.00 87 1012.2
20260902074518 70 0.0 0.0 0.00 0.00 0.00 87 1012.4
20260902073518 70 0.0 0.0 0.00 0.00 0.00 87 1013.0
20260902072518 70 0.0 0.0 0.00 0.00 0.00 87 1013.4
20260902071518 70 0.0 0.0 0.00 0.00 0.00 87 1013.1
20260902070518 70 0.0 0.0 0.00 0.00 0.00 88 1013.3
20260902065518 70 0.0 0.0 0.00 0.00 0.00 88 1013.3
20260902064607 70 0.0 0.0 0.00 0.00 0.00 88 1013.5
20260902063538 71 0.0 0.0 0.00 0.00 0.00 88 1013.5
20260902062519 71 0.0 0.0 0.00 0.00 0.00 88 1013.4
20260902061538 70 0.0 1.0 0.00 0.00 0.00 88 1013.3
20260902060520 70 0.0 0.0 0.00 0.00 0.00 88 1013.8
20260902055520 69 0.0 0.0 0.00 0.00 0.00 88 1014.0
20260902054518 69 0.0 0.0 0.00 0.00 0.00 88 1013.5
20260902053529 69 0.0 0.0 0.00 0.00 0.00 88 1013.2
20260902052546 69 0.0 0.0 0.00 0.00 0.00 88 1013.4
20260902051540 69 0.0 0.0 0.00 0.00 0.00 89 1013.4
20260902050520 69 0.0 0.0 0.00 0.00 0.00 89 1013.9
20260902045540 69 0.0 0.0 0.00 0.00 0.00 88 1013.6
20260902044520 69 0.0 0.0 0.00 0.00 0.00 88 1013.3
20260902043537 70 0.0 0.0 0.00 0.00 0.00 88 1013.2
20260902042520 70 0.0 0.0 0.00 0.00 0.00 87 1013.1
20260902041519 71 0.0 0.0 0.00 0.00 0.00 86 1013.4
20260902040529 71 0.0 0.0 0.00 0.00 0.00 86 1013.6
20260902035520 71 0.0 0.0 0.00 0.00 0.00 85 1013.7
20260902034520 72 0.0 0.0 0.00 0.00 0.00 84 1013.4
20260902033520 72 0.0 0.0 0.00 0.00 0.00 83 1013.4
20260902032519 73 0.0 0.0 0.00 0.00 0.00 82 1013.5
20260902031529 73 0.0 0.0 0.00 0.00 0.00 81 1013.6
20260902030520 74 0.0 0.0 0.00 0.00 0.00 80 1013.7
20260902025540 74 0.0 0.0 0.00 0.00 0.00 79 1013.7
20260902024528 74 0.0 0.0 0.00 0.00 0.00 78 1013.4
20260902023520 75 0.0 0.0 0.00 0.00 0.00 77 1013.3
20260902022802 75 0.0 0.0 0.00 0.00 0.00 76 1013.3
20260902021528 75 0.0 0.0 0.00 0.00 0.00 76 1013.1
20260902020537 76 0.0 0.0 0.00 0.00 0.00 75 1013.2
20260902015520 76 0.0 0.0 0.00 0.00 0.00 75 1013.0
20260902014520 77 0.0 0.0 0.00 0.00 0.00 75 1012.6
20260902013557 77 0.0 0.0 0.00 0.00 0.00 74 1012.5
20260902012520 78 0.0 0.0 0.00 0.00 0.00 74 1012.4
20260902011520 79 0.0 0.0 0.00 0.00 0.00 73 1012.2
20260902010528 79 0.0 0.0 0.00 0.00 0.00 71 1012.3
20260902005529 80 0.0 0.0 0.00 0.00 0.00 71 1012.4
20260902004519 80 0.0 0.0 0.00 0.00 0.00 69 1012.4
20260902003537 81 0.0 0.0 0.00 0.00 0.00 69 1012.5
20260902002520 81 0.0 1.0 0.00 0.00 0.00 68 1012.6
20260902001519 82 0.0 0.0 0.00 0.00 0.00 67 1012.5
20260902000519 82 0.0 1.0 0.00 0.00 0.00 66 1012.5
20260901235715 83 0.0 0.0 0.00 0.00 0.00 66 1012.5
20260901234537 83 0.0 0.0 0.00 0.00 0.00 64 1012.3
20260901233520 84 0.0 0.0 0.00 0.00 0.00 63 1012.3
20260901232520 84 0.0 0.0 0.00 0.00 0.00 63 1012.4
20260901231520 85 0.0 0.0 0.00 0.00 0.00 62 1012.2
20260901230519 85 0.0 0.0 0.00 0.00 0.00 60 1012.0
20260901225519 86 0.0 0.0 0.00 0.00 0.00 57 1011.8
20260901224519 86 0.0 1.0 0.00 0.00 0.00 57 1012.0
20260901223528 86 0.0 2.0 0.00 0.00 0.00 56 1012.0
20260901222528 87 0.0 2.0 0.00 0.00 0.00 54 1012.1
20260901221520 88 0.0 3.0 0.00 0.00 0.00 54 1012.3
20260901220519 88 0.0 3.0 0.00 0.00 0.00 56 1012.3
20260901215519 89 158 1.0 7.0 0.00 0.00 0.00 56 1012.4
20260901214536 89 0.0 0.0 0.00 0.00 0.00 57 1012.4
20260901213536 89 0.0 3.0 0.00 0.00 0.00 55 1012.2
20260901212540 90 0.0 3.0 0.00 0.00 0.00 52 1012.3
20260901211520 91 0.0 3.0 0.00 0.00 0.00 49 1012.3
20260901210539 91 0.0 2.0 0.00 0.00 0.00 48 1012.3
20260901205519 93 0.0 2.0 0.00 0.00 0.00 48 1012.4
20260901204700 92 203 1.0 3.0 0.00 0.00 0.00 48 1012.4
20260901204019 92 158 1.0 5.0 0.00 0.00 0.00 46 1012.5
20260901203108 93 0.0 2.0 0.00 0.00 0.00 46 1012.5